| time (UTC) | temp F | wind direction | speed knots | gust knots | rain 1hr in | rain 24hr in | rain mn in | humidity % | barometer mb |
| 20260505231555 | 73 | 61 | 3.5 | 11.3 | 0.00 | 0.00 | 0.00 | 46 | 1007.1 |
| 20260505230052 | 73 | 45 | 5.2 | 7.8 | 0.00 | 0.00 | 0.00 | 46 | 1007.3 |
| 20260505224552 | 73 | 46 | 5.2 | 9.6 | 0.00 | 0.00 | 0.00 | 46 | 1007.3 |
| 20260505223054 | 74 | 40 | 3.5 | 10.4 | 0.00 | 0.00 | 0.00 | 46 | 1007.2 |
| 20260505221520 | 74 | 16 | 5.2 | 16.5 | 0.00 | 0.00 | 0.00 | 45 | 1007.2 |
| 20260505220018 | 74 | 22 | 9.6 | 13.9 | 0.00 | 0.00 | 0.00 | 46 | 1007.2 |
| 20260505214514 | 75 | 5 | 4.3 | 7.8 | 0.00 | 0.00 | 0.00 | 48 | 1007.2 |
| 20260505213012 | 75 | 23 | 6.1 | 13.9 | 0.00 | 0.00 | 0.00 | 48 | 1007.2 |
| 20260505211512 | 75 | 349 | 6.1 | 10.4 | 0.00 | 0.00 | 0.00 | 49 | 1007.3 |
| 20260505210010 | 75 | 335 | 3.5 | 9.6 | 0.00 | 0.00 | 0.00 | 50 | 1007.4 |
| 20260505204507 | 75 | 44 | 4.3 | 13.0 | 0.00 | 0.00 | 0.00 | 49 | 1007.5 |
| 20260505203006 | 75 | 60 | 6.1 | 8.7 | 0.00 | 0.00 | 0.00 | 49 | 1007.8 |
| 20260505201505 | 75 | 52 | 7.8 | 11.3 | 0.00 | 0.00 | 0.00 | 49 | 1007.8 |
| 20260505200004 | 74 | 48 | 5.2 | 12.2 | 0.00 | 0.00 | 0.00 | 50 | 1007.9 |
| 20260505194501 | 74 | 329 | 4.3 | 10.4 | 0.00 | 0.00 | 0.00 | 50 | 1008.1 |
| 20260505193100 | 74 | 46 | 7.8 | 13.0 | 0.00 | 0.00 | 0.00 | 49 | 1008.6 |
| 20260505191600 | 74 | 24 | 5.2 | 12.2 | 0.00 | 0.00 | 0.00 | 50 | 1008.8 |
| 20260505190059 | 75 | 67 | 7.0 | 11.3 | 0.00 | 0.01 | 0.00 | 48 | 1008.9 |
| 20260505184556 | 75 | 44 | 7.0 | 16.5 | 0.00 | 0.01 | 0.00 | 50 | 1009.1 |
| 20260505183053 | 74 | 11 | 7.8 | 16.5 | 0.00 | 0.01 | 0.00 | 50 | 1009.3 |
| 20260505181557 | 74 | 71 | 6.1 | 13.9 | 0.00 | 0.01 | 0.00 | 50 | 1009.6 |
| 20260505180051 | 74 | 22 | 8.7 | 16.5 | 0.00 | 0.01 | 0.00 | 48 | 1009.5 |
| 20260505174555 | 73 | 30 | 10.4 | 18.2 | 0.00 | 0.01 | 0.00 | 50 | 1009.7 |
| 20260505173048 | 73 | 37 | 8.7 | 16.5 | 0.00 | 0.01 | 0.00 | 52 | 1009.9 |
| 20260505171551 | 74 | 360 | 6.1 | 16.5 | 0.00 | 0.01 | 0.00 | 51 | 1009.8 |
| 20260505170046 | 74 | 42 | 7.8 | 17.4 | 0.00 | 0.01 | 0.00 | 51 | 1009.9 |
| 20260505164556 | 74 | 19 | 9.6 | 18.2 | 0.00 | 0.01 | 0.00 | 50 | 1009.8 |
| 20260505163051 | 74 | 339 | 7.0 | 13.0 | 0.00 | 0.01 | 0.00 | 53 | 1009.6 |
| 20260505161539 | 74 | 345 | 7.8 | 19.1 | 0.00 | 0.01 | 0.00 | 52 | 1010.0 |
| 20260505153029 | 73 | 61 | 7.8 | 18.2 | 0.00 | 0.01 | 0.00 | 54 | 1010.3 |
| 20260505151526 | 72 | 73 | 7.8 | 13.0 | 0.00 | 0.01 | 0.00 | 54 | 1010.2 |
| 20260505124538 | 67 | 59 | 6.1 | 11.3 | 0.00 | 0.01 | 0.00 | 59 | 1010.4 |
| 20260505123029 | 66 | 306 | 5.2 | 8.7 | 0.00 | 0.01 | 0.00 | 61 | 1010.4 |
| 20260505121529 | 65 | 24 | 4.3 | 7.8 | 0.00 | 0.01 | 0.00 | 61 | 1010.2 |
| 20260505120114 | 65 | 11 | 1.7 | 8.7 | 0.00 | 0.01 | 0.00 | 63 | 1010.0 |
| 20260505114555 | 64 | 23 | 3.5 | 8.7 | 0.00 | 0.01 | 0.00 | 64 | 1009.7 |
| 20260505113024 | 63 | 31 | 1.7 | 7.8 | 0.00 | 0.01 | 0.00 | 66 | 1009.7 |
| 20260505111533 | 62 | 340 | 0.9 | 4.3 | 0.00 | 0.01 | 0.00 | 66 | 1009.7 |
| 20260505101515 | 64 | 24 | 1.7 | 6.1 | 0.00 | 0.01 | 0.00 | 62 | 1009.4 |
| 20260505100017 | 64 | 33 | 4.3 | 7.0 | 0.00 | 0.01 | 0.00 | 62 | 1009.3 |
| 20260505094509 | 65 | 56 | 2.6 | 8.7 | 0.00 | 0.01 | 0.00 | 62 | 1009.0 |
| 20260505093008 | 65 | 18 | 3.5 | 10.4 | 0.00 | 0.01 | 0.00 | 62 | 1008.8 |
| 20260505091507 | 65 | 26 | 4.3 | 8.7 | 0.00 | 0.01 | 0.00 | 62 | 1008.6 |
| 20260505090005 | 65 | 26 | 3.5 | 7.0 | 0.00 | 0.01 | 0.00 | 62 | 1008.7 |
| 20260505084503 | 65 | 13 | 2.6 | 7.0 | 0.00 | 0.01 | 0.00 | 63 | 1008.5 |
| 20260505083005 | 66 | 22 | 4.3 | 8.7 | 0.00 | 0.01 | 0.00 | 62 | 1008.5 |
| 20260505081501 | 66 | 41 | 4.3 | 7.8 | 0.00 | 0.01 | 0.00 | 61 | 1008.5 |
| 20260505080033 | 66 | 22 | 6.1 | 11.3 | 0.00 | 0.01 | 0.00 | 61 | 1008.4 |
| 20260505074530 | 66 | 56 | 5.2 | 11.3 | 0.00 | 0.01 | 0.00 | 61 | 1008.4 |
| 20260505073041 | 67 | 61 | 7.0 | 12.2 | 0.00 | 0.01 | 0.00 | 60 | 1008.4 |
| 20260505071544 | 67 | 69 | 6.1 | 9.6 | 0.00 | 0.01 | 0.00 | 61 | 1008.2 |
| 20260505070026 | 67 | 13 | 7.0 | 12.2 | 0.00 | 0.01 | 0.00 | 61 | 1008.2 |
| 20260505064527 | 66 | 45 | 5.2 | 12.2 | 0.00 | 0.01 | 0.00 | 61 | 1008.4 |
| 20260505063021 | 66 | 57 | 5.2 | 8.7 | 0.00 | 0.01 | 0.00 | 61 | 1008.4 |
| 20260505061520 | 66 | 42 | 6.1 | 8.7 | 0.00 | 0.01 | 0.00 | 61 | 1008.4 |
| 20260505060018 | 65 | 48 | 5.2 | 7.8 | 0.00 | 0.01 | 0.00 | 61 | 1008.3 |
| 20260505054517 | 65 | 22 | 4.3 | 6.1 | 0.00 | 0.01 | 0.00 | 62 | 1008.5 |
| 20260505053023 | 65 | 29 | 2.6 | 6.1 | 0.00 | 0.01 | 0.00 | 61 | 1008.5 |
| 20260505051518 | 65 | 32 | 1.7 | 5.2 | 0.00 | 0.01 | 0.00 | 62 | 1008.5 |
| 20260505041532 | 63 | 25 | 0.9 | 4.3 | 0.00 | 0.01 | 0.00 | 67 | 1007.8 |
| 20260505040036 | 62 | 340 | 0.0 | 1.7 | 0.00 | 0.01 | 0.01 | 69 | 1007.6 |
| 20260505034528 | 62 | 340 | 0.0 | 4.3 | 0.00 | 0.01 | 0.01 | 70 | 1007.6 |
| 20260505033031 | 62 | 292 | 0.0 | 6.1 | 0.00 | 0.01 | 0.01 | 73 | 1007.5 |
| 20260505031528 | 63 | 336 | 0.0 | 2.6 | 0.00 | 0.01 | 0.01 | 72 | 1007.5 |
| 20260505030027 | 65 | 338 | 0.0 | 0.9 | 0.00 | 0.01 | 0.01 | 65 | 1007.6 |
| 20260505024523 | 65 | 342 | 0.0 | 4.3 | 0.00 | 0.01 | 0.01 | 66 | 1007.5 |
| 20260505023023 | 64 | 19 | 0.0 | 3.5 | 0.00 | 0.01 | 0.01 | 68 | 1007.3 |
| 20260505021525 | 64 | 59 | 0.0 | 1.7 | 0.00 | 0.01 | 0.01 | 70 | 1007.2 |
| 20260505020020 | 65 | 43 | 0.0 | 1.7 | 0.00 | 0.01 | 0.01 | 69 | 1007.2 |
| 20260505014520 | 64 | 49 | 0.0 | 1.7 | 0.00 | 0.01 | 0.01 | 70 | 1007.2 |
| 20260505013018 | 65 | 40 | 0.0 | 0.9 | 0.00 | 0.01 | 0.01 | 71 | 1007.1 |
| 20260505011517 | 68 | 36 | 0.9 | 1.7 | 0.00 | 0.01 | 0.01 | 66 | 1007.0 |
| 20260505010015 | 72 | 29 | 0.0 | 0.9 | 0.00 | 0.01 | 0.01 | 55 | 1007.0 |
| 20260505004514 | 72 | 355 | 1.7 | 6.1 | 0.00 | 0.01 | 0.01 | 54 | 1007.0 |
| 20260505003013 | 73 | 17 | 0.0 | 3.5 | 0.00 | 0.01 | 0.01 | 54 | 1006.8 |
| 20260505001513 | 74 | 42 | 0.0 | 4.3 | 0.00 | 0.01 | 0.01 | 54 | 1006.9 |
| 20260505000010 | 74 | 42 | 0.9 | 6.1 | 0.00 | 0.01 | 0.01 | 52 | 1007.1 |
| 20260504234510 | 75 | 36 | 3.5 | 7.8 | 0.00 | 0.01 | 0.01 | 51 | 1007.2 |